Volver al catálogo

ONEWEB-0285

ActivoComunicacionesPO
NORAD 49075·PAYLOAD·🇬🇧 United Kingdom

Lanzado Aug 21, 2021 desde Baikonur Cosmodrome

Loading…

Próximos Pases (próximas 24 horas)

TLE

ActualizadoSource: CelesTrak SupGP

Época: Sep 14, 2026, 15:42 UTC

1 49075C 21075A   26257.65466850  .00001927  00000+0  53630-2 0  2576
2 49075  87.8990 332.9029 0001938 106.9579 327.4707 13.12446640    16

Sigue ONEWEB-0285 en tiempo real con AllMySat

Download on the App Store